QPF
0.00 0.00 0.00 0.00 0.00 0.00 0.00 0.00 0.00 0.00 0.00 0.00 0.00 0.00 0.00 0.00 0.00 0.00 0.00 0.00 0.00 0.00 0.00 0.00 0.00 0.00 0.00 0.00 0.00 0.00 0.00 0.00 0.00 0.00 0.00 0.00 0.00 0.00 0.00 0.00 0.00 0.00 0.00 0.00
0.00 0.00 0.00 0.00 0.00 0.00 0.00 0.00 0.00 0.00 0.00 0.00 0.00 0.00 0.00 0.00 0.00 0.00 0.00 0.00 0.00 0.00 0.00 0.00 0.00 0.00 0.00 0.00 0.00 0.00 0.00 0.00 0.00 0.00 0.00 0.00 0.00 0.00 0.00 0.00 0.00 0.00 0.00 0.00
0.00 0.00 0.00 0.00 0.00 0.00 0.00 0.00 0.00 0.00 0.00 0.00 0.00 0.00 0.00 0.00 0.00 0.00 0.00 0.00 0.00 0.00 0.00 0.00 0.00 0.00 0.00 0.00 0.00 0.00 0.00 0.00 0.00 0.00 0.00 0.00 0.00 0.00 0.00 0.00 0.00 0.00 0.00 0.00
0.00 0.00 0.00 0.00 0.00 0.00 0.00 0.00 0.00 0.00 0.00 0.00 0.00 0.00 0.00 0.00 0.00 0.00 0.00 0.00 0.00 0.00 0.00 0.00 0.00 0.00 0.00 0.00 0.00 0.00 0.00 0.00 0.00 0.00 0.00 0.00 0.00 0.00 0.00 0.00 0.00 0.00 0.00 0.00
0.00 0.00 0.00 0.00 0.00 0.00 0.00 0.00 0.00 0.00 0.00 0.00 0.00 0.00 0.00 0.00 0.00 0.00 0.00 0.00 0.00 0.00 0.00 0.00 0.00 0.00 0.00 0.00 0.00 0.00 0.00 0.00 0.00 0.00 0.00 0.00 0.00 0.00 0.00 0.00 0.00 0.00 0.00 0.00
0.00 0.00 0.00 0.00 0.00 0.00 0.00 0.00 0.00 0.00 0.00 0.00 0.00 0.00 0.00 0.00 0.00 0.00 0.00 0.00 0.00 0.00 0.00 0.00 0.00 0.00 0.00 0.00 0.00 0.00 0.00 0.00 0.00 0.00 0.00 0.00 0.00 0.00 0.00 0.00 0.00 0.00 0.00 0.00
0.00 0.00 0.00 0.00 0.00 0.00 0.00 0.00 0.00 0.00 0.00 0.00 0.00 0.00 0.00 0.00 0.00 0.00 0.00 0.00 0.00 0.00 0.00 0.00 0.00 0.00 0.00 0.00 0.00 0.00 0.00 0.00 0.00 0.00 0.00 0.00 0.00 0.00 0.00 0.00 0.01 0.00 0.00 0.00
0.00 0.00 0.00 0.00 0.00 0.00 0.00 0.00 0.00 0.00 0.00 0.00 0.00 0.00 0.00 0.00 0.00 0.00 0.00 0.00 0.00 0.00 0.00 0.00 0.00 0.00 0.00 0.00 0.00 0.00 0.00 0.00 0.00 0.00 0.00 0.00 0.00 0.00 0.00 0.01 0.01 0.01 0.01 0.01
0.00 0.00 0.00 0.00 0.00 0.00 0.00 0.00 0.00 0.00 0.00 0.00 0.00 0.00 0.00 0.00 0.00 0.00 0.00 0.00 0.00 0.00 0.00 0.00 0.00 0.00 0.00 0.00 0.00 0.00 0.00 0.00 0.00 0.00 0.00 0.00 0.00 0.01 0.01 0.01 0.01 0.01 0.01 0.01
0.00 0.00 0.00 0.00 0.00 0.00 0.00 0.00 0.00 0.00 0.00 0.00 0.00 0.00 0.00 0.00 0.00 0.00 0.00 0.00 0.00 0.00 0.00 0.00 0.00 0.00 0.00 0.00 0.00 0.00 0.00 0.00 0.00 0.00 0.00 0.00 0.01 0.01 0.01 0.01 0.02 0.02 0.02 0.02
0.00 0.00 0.00 0.00 0.00 0.00 0.00 0.00 0.00 0.00 0.00 0.00 0.00 0.00 0.00 0.00 0.00 0.00 0.00 0.00 0.00 0.00 0.00 0.00 0.00 0.00 0.00 0.00 0.00 0.00 0.00 0.00 0.00 0.00 0.00 0.01 0.01 0.01 0.01 0.01 0.02 0.03 0.04 0.04
0.00 0.00 0.00 0.00 0.00 0.00 0.00 0.00 0.00 0.00 0.00 0.00 0.00 0.00 0.00 0.00 0.00 0.00 0.00 0.00 0.00 0.00 0.00 0.00 0.00 0.00 0.00 0.00 0.00 0.00 0.00 0.00 0.00 0.01 0.01 0.01 0.01 0.01 0.00 0.01 0.01 0.01 0.01 0.02
0.00 0.00 0.00 0.00 0.00 0.00 0.00 0.00 0.00 0.00 0.00 0.00 0.00 0.00 0.00 0.00 0.00 0.00 0.00 0.00 0.00 0.00 0.00 0.00 0.00 0.00 0.00 0.00 0.00 0.00 0.01 0.01 0.01 0.01 0.01 0.01 0.01 0.02 0.01 0.01 0.00 0.00 0.01 0.01
0.00 0.00 0.00 0.00 0.00 0.00 0.00 0.00 0.00 0.00 0.00 0.00 0.00 0.00 0.00 0.00 0.00 0.00 0.00 0.00 0.00 0.00 0.00 0.00 0.00 0.00 0.00 0.00 0.00 0.01 0.01 0.01 0.01 0.01 0.02 0.02 0.02 0.02 0.01 0.01 0.01 0.00 0.00 0.01
0.00 0.00 0.00 0.00 0.00 0.00 0.00 0.00 0.00 0.00 0.00 0.00 0.00 0.00 0.00 0.00 0.00 0.00 0.00 0.00 0.00 0.00 0.00 0.00 0.00 0.00 0.00 0.00 0.00 0.01 0.01 0.01 0.01 0.01 0.01 0.01 0.01 0.01 0.01 0.01 0.01 0.01 0.01 0.00
0.00 0.00 0.00 0.00 0.00 0.00 0.00 0.00 0.00 0.00 0.00 0.00 0.00 0.00 0.00 0.00 0.00 0.00 0.00 0.00 0.00 0.00 0.00 0.00 0.00 0.00 0.00 0.00 0.01 0.01 0.01 0.01 0.01 0.02 0.02 0.01 0.01 0.01 0.01 0.01 0.01 0.01 0.01 0.01
0.00 0.00 0.00 0.00 0.00 0.00 0.00 0.00 0.00 0.00 0.00 0.00 0.00 0.00 0.00 0.00 0.00 0.00 0.00 0.00 0.00 0.00 0.00 0.00 0.00 0.00 0.00 0.00 0.01 0.01 0.01 0.01 0.01 0.02 0.02 0.02 0.02 0.01 0.02 0.02 0.02 0.02 0.01 0.01
0.00 0.00 0.00 0.00 0.00 0.00 0.00 0.00 0.00 0.00 0.00 0.00 0.00 0.00 0.00 0.00 0.00 0.00 0.00 0.00 0.00 0.00 0.00 0.00 0.00 0.00 0.00 0.00 0.01 0.01 0.01 0.01 0.02 0.02 0.02 0.02 0.01 0.01 0.02 0.02 0.02 0.02 0.01 0.01
0.00 0.00 0.00 0.00 0.00 0.00 0.00 0.00 0.00 0.00 0.00 0.00 0.00 0.00 0.00 0.00 0.00 0.00 0.00 0.00 0.00 0.00 0.00 0.00 0.00 0.00 0.00 0.00 0.00 0.01 0.02 0.03 0.02 0.02 0.01 0.01 0.01 0.01 0.01 0.02 0.02 0.02 0.02 0.02
0.00 0.00 0.00 0.00 0.00 0.00 0.00 0.00 0.00 0.00 0.00 0.00 0.00 0.00 0.00 0.00 0.00 0.00 0.00 0.00 0.00 0.00 0.00 0.00 0.00 0.00 0.00 0.00 0.01 0.02 0.03 0.02 0.02 0.02 0.01 0.01 0.01 0.01 0.01 0.02 0.02 0.02 0.02 0.02
0.00 0.00 0.00 0.00 0.00 0.00 0.00 0.00 0.00 0.00 0.00 0.00 0.00 0.00 0.00 0.00 0.00 0.00 0.00 0.00 0.00 0.00 0.00 0.00 0.00 0.00 0.00 0.01 0.02 0.02 0.02 0.02 0.02 0.02 0.02 0.02 0.02 0.02 0.01 0.02 0.02 0.02 0.02 0.02
0.00 0.00 0.00 0.00 0.00 0.00 0.00 0.00 0.00 0.00 0.00 0.00 0.00 0.00 0.00 0.00 0.00 0.00 0.00 0.00 0.00 0.00 0.00 0.00 0.00 0.01 0.01 0.02 0.02 0.01 0.01 0.02 0.02 0.02 0.02 0.02 0.02 0.02 0.02 0.02 0.02 0.02 0.02 0.02
0.00 0.00 0.00 0.00 0.00 0.00 0.00 0.00 0.00 0.00 0.00 0.00 0.00 0.00 0.00 0.00 0.00 0.00 0.00 0.00 0.00 0.00 0.00 0.00 0.01 0.01 0.01 0.01 0.01 0.01 0.01 0.02 0.02 0.02 0.02 0.02 0.03 0.03 0.03 0.03 0.02 0.02 0.02 0.02
0.00 0.00 0.00 0.00 0.00 0.00 0.00 0.00 0.00 0.00 0.00 0.00 0.00 0.00 0.00 0.00 0.00 0.00 0.00 0.00 0.00 0.00 0.00 0.00 0.00 0.01 0.01 0.01 0.01 0.01 0.01 0.02 0.02 0.02 0.02 0.02 0.02 0.03 0.03 0.03 0.03 0.02 0.02 0.02
0.00 0.00 0.00 0.00 0.00 0.00 0.00 0.00 0.00 0.00 0.00 0.00 0.00 0.00 0.00 0.00 0.00 0.00 0.00 0.00 0.00 0.00 0.00 0.00 0.00 0.00 0.01 0.01 0.01 0.01 0.01 0.02 0.02 0.03 0.03 0.03 0.03 0.03 0.03 0.03 0.02 0.02 0.02 0.02
0.00 0.00 0.00 0.00 0.00 0.00 0.00 0.00 0.00 0.00 0.00 0.00 0.00 0.00 0.00 0.00 0.00 0.00 0.00 0.00 0.00 0.00 0.00 0.00 0.00 0.00 0.01 0.01 0.01 0.01 0.02 0.02 0.02 0.02 0.02 0.03 0.03 0.03 0.02 0.02 0.02 0.02 0.02 0.02
0.00 0.00 0.00 0.00 0.00 0.00 0.00 0.00 0.00 0.00 0.00 0.00 0.00 0.00 0.00 0.00 0.00 0.00 0.00 0.00 0.00 0.00 0.00 0.00 0.00 0.00 0.01 0.01 0.01 0.01 0.02 0.02 0.02 0.02 0.02 0.02 0.03 0.03 0.03 0.03 0.02 0.02 0.02 0.02
MSLP
1019.41 1019.62 1019.82 1020.02 1020.23 1020.44 1020.64 1020.84 1021.02 1021.20 1021.38 1021.57 1021.76 1021.96 1022.15 1022.32 1022.44 1022.49 1022.44 1022.27 1021.98 1021.57 1021.06 1020.49 1019.88 1019.26 1018.66 1018.09 1017.54 1016.99 1016.43 1015.82 1015.16 1014.43 1013.63 1012.78 1011.91 1011.04 1010.21 1009.42 1008.71 1008.06 1007.47 1006.93
1019.65 1019.74 1019.82 1019.89 1019.97 1020.07 1020.21 1020.39 1020.61 1020.86 1021.15 1021.45 1021.76 1022.06 1022.31 1022.51 1022.62 1022.63 1022.52 1022.28 1021.93 1021.48 1020.96 1020.38 1019.79 1019.20 1018.61 1018.04 1017.48 1016.89 1016.27 1015.60 1014.85 1014.03 1013.14 1012.21 1011.27 1010.33 1009.44 1008.61 1007.85 1007.16 1006.54 1005.97
1019.95 1019.94 1019.89 1019.84 1019.81 1019.83 1019.93 1020.10 1020.36 1020.68 1021.05 1021.45 1021.85 1022.21 1022.50 1022.70 1022.78 1022.74 1022.56 1022.27 1021.87 1021.38 1020.84 1020.27 1019.69 1019.11 1018.53 1017.95 1017.35 1016.71 1016.02 1015.27 1014.43 1013.53 1012.57 1011.57 1010.57 1009.59 1008.65 1007.79 1007.00 1006.29 1005.65 1005.07
1020.28 1020.17 1020.03 1019.88 1019.77 1019.74 1019.82 1020.00 1020.30 1020.68 1021.13 1021.60 1022.05 1022.43 1022.73 1022.90 1022.93 1022.83 1022.59 1022.24 1021.79 1021.27 1020.72 1020.14 1019.56 1018.97 1018.38 1017.77 1017.12 1016.42 1015.66 1014.82 1013.91 1012.93 1011.91 1010.88 1009.85 1008.85 1007.91 1007.04 1006.25 1005.53 1004.89 1004.29
1020.57 1020.38 1020.16 1019.95 1019.81 1019.76 1019.85 1020.07 1020.41 1020.85 1021.35 1021.85 1022.32 1022.71 1022.97 1023.09 1023.06 1022.89 1022.58 1022.17 1021.67 1021.13 1020.56 1019.97 1019.38 1018.77 1018.15 1017.50 1016.79 1016.03 1015.19 1014.28 1013.31 1012.29 1011.24 1010.19 1009.17 1008.19 1007.27 1006.42 1005.65 1004.94 1004.29 1003.68
1020.74 1020.50 1020.24 1020.01 1019.87 1019.85 1019.97 1020.24 1020.63 1021.11 1021.64 1022.16 1022.62 1022.97 1023.18 1023.23 1023.12 1022.87 1022.50 1022.03 1021.49 1020.92 1020.33 1019.73 1019.12 1018.50 1017.84 1017.14 1016.38 1015.55 1014.65 1013.69 1012.69 1011.65 1010.60 1009.57 1008.59 1007.65 1006.77 1005.97 1005.21 1004.52 1003.86 1003.23
1020.78 1020.52 1020.25 1020.04 1019.93 1019.96 1020.13 1020.46 1020.90 1021.41 1021.95 1022.45 1022.87 1023.15 1023.29 1023.25 1023.06 1022.73 1022.29 1021.77 1021.21 1020.62 1020.02 1019.41 1018.79 1018.15 1017.46 1016.72 1015.91 1015.04 1014.10 1013.11 1012.09 1011.06 1010.04 1009.05 1008.12 1007.24 1006.42 1005.66 1004.94 1004.25 1003.58 1002.92
1020.69 1020.43 1020.19 1020.02 1019.97 1020.07 1020.31 1020.69 1021.16 1021.68 1022.20 1022.66 1023.01 1023.21 1023.25 1023.12 1022.84 1022.44 1021.95 1021.40 1020.82 1020.22 1019.63 1019.02 1018.40 1017.75 1017.04 1016.27 1015.43 1014.53 1013.57 1012.57 1011.55 1010.54 1009.57 1008.64 1007.76 1006.95 1006.18 1005.46 1004.77 1004.09 1003.41 1002.72
1020.52 1020.29 1020.10 1020.00 1020.02 1020.19 1020.49 1020.90 1021.39 1021.89 1022.36 1022.75 1023.00 1023.10 1023.04 1022.82 1022.46 1022.00 1021.48 1020.91 1020.33 1019.75 1019.17 1018.58 1017.97 1017.32 1016.61 1015.82 1014.97 1014.05 1013.08 1012.09 1011.09 1010.11 1009.18 1008.30 1007.49 1006.73 1006.01 1005.33 1004.66 1003.98 1003.29 1002.57
1020.35 1020.17 1020.04 1020.02 1020.12 1020.34 1020.68 1021.11 1021.57 1022.03 1022.42 1022.71 1022.85 1022.84 1022.67 1022.36 1021.94 1021.44 1020.89 1020.33 1019.77 1019.22 1018.67 1018.11 1017.52 1016.88 1016.18 1015.39 1014.53 1013.61 1012.64 1011.66 1010.68 1009.74 1008.85 1008.02 1007.25 1006.53 1005.85 1005.20 1004.55 1003.88 1003.19 1002.47
1020.26 1020.14 1020.08 1020.12 1020.28 1020.54 1020.90 1021.30 1021.71 1022.09 1022.38 1022.55 1022.57 1022.44 1022.17 1021.79 1021.31 1020.79 1020.24 1019.70 1019.18 1018.67 1018.16 1017.64 1017.08 1016.46 1015.76 1014.98 1014.12 1013.20 1012.24 1011.26 1010.31 1009.39 1008.53 1007.73 1007.00 1006.32 1005.67 1005.04 1004.41 1003.76 1003.08 1002.37
1020.30 1020.23 1020.24 1020.33 1020.53 1020.80 1021.13 1021.48 1021.81 1022.08 1022.25 1022.29 1022.18 1021.94 1021.59 1021.14 1020.64 1020.11 1019.58 1019.07 1018.59 1018.12 1017.66 1017.17 1016.64 1016.03 1015.34 1014.56 1013.70 1012.78 1011.83 1010.87 1009.93 1009.03 1008.20 1007.43 1006.72 1006.07 1005.45 1004.84 1004.23 1003.61 1002.97 1002.30
1020.46 1020.44 1020.49 1020.62 1020.82 1021.08 1021.36 1021.63 1021.85 1022.00 1022.03 1021.94 1021.72 1021.38 1020.96 1020.47 1019.95 1019.42 1018.92 1018.45 1018.01 1017.59 1017.16 1016.70 1016.18 1015.58 1014.90 1014.12 1013.26 1012.34 1011.39 1010.44 1009.52 1008.65 1007.84 1007.09 1006.42 1005.79 1005.20 1004.62 1004.05 1003.47 1002.87 1002.26
1020.70 1020.72 1020.81 1020.94 1021.13 1021.34 1021.54 1021.71 1021.82 1021.83 1021.73 1021.52 1021.20 1020.78 1020.30 1019.78 1019.26 1018.75 1018.28 1017.85 1017.45 1017.05 1016.65 1016.20 1015.69 1015.09 1014.41 1013.62 1012.76 1011.85 1010.91 1009.97 1009.07 1008.23 1007.45 1006.74 1006.09 1005.50 1004.94 1004.41 1003.88 1003.35 1002.81 1002.26
1020.97 1021.02 1021.11 1021.23 1021.38 1021.52 1021.64 1021.69 1021.67 1021.56 1021.34 1021.02 1020.61 1020.13 1019.62 1019.09 1018.57 1018.09 1017.65 1017.25 1016.87 1016.50 1016.11 1015.66 1015.15 1014.54 1013.85 1013.06 1012.20 1011.30 1010.37 1009.47 1008.60 1007.79 1007.05 1006.38 1005.77 1005.22 1004.71 1004.22 1003.74 1003.26 1002.78 1002.30
1021.21 1021.26 1021.34 1021.43 1021.52 1021.58 1021.60 1021.54 1021.40 1021.17 1020.85 1020.44 1019.97 1019.45 1018.91 1018.38 1017.88 1017.42 1017.00 1016.62 1016.26 1015.90 1015.51 1015.06 1014.53 1013.92 1013.22 1012.43 1011.58 1010.70 1009.81 1008.93 1008.11 1007.34 1006.65 1006.02 1005.47 1004.97 1004.50 1004.06 1003.63 1003.21 1002.78 1002.35
1021.37 1021.41 1021.46 1021.50 1021.52 1021.50 1021.41 1021.25 1021.01 1020.68 1020.26 1019.79 1019.26 1018.72 1018.17 1017.65 1017.16 1016.72 1016.32 1015.96 1015.61 1015.24 1014.84 1014.39 1013.85 1013.24 1012.53 1011.76 1010.93 1010.08 1009.22 1008.39 1007.61 1006.89 1006.25 1005.68 1005.17 1004.72 1004.30 1003.91 1003.52 1003.14 1002.76 1002.38
1021.45 1021.46 1021.46 1021.45 1021.39 1021.28 1021.09 1020.84 1020.50 1020.08 1019.60 1019.07 1018.51 1017.95 1017.40 1016.88 1016.41 1015.98 1015.59 1015.24 1014.89 1014.52 1014.12 1013.66 1013.13 1012.51 1011.82 1011.07 1010.27 1009.45 1008.64 1007.86 1007.12 1006.45 1005.85 1005.33 1004.86 1004.45 1004.07 1003.71 1003.37 1003.03 1002.69 1002.33
1021.43 1021.40 1021.35 1021.26 1021.13 1020.93 1020.67 1020.32 1019.91 1019.43 1018.89 1018.32 1017.74 1017.16 1016.61 1016.09 1015.63 1015.21 1014.83 1014.47 1014.12 1013.76 1013.36 1012.90 1012.38 1011.78 1011.12 1010.39 1009.63 1008.85 1008.08 1007.34 1006.64 1006.00 1005.43 1004.93 1004.49 1004.10 1003.76 1003.43 1003.12 1002.81 1002.50 1002.18
1021.33 1021.25 1021.14 1020.99 1020.78 1020.51 1020.17 1019.75 1019.27 1018.74 1018.16 1017.56 1016.95 1016.37 1015.81 1015.29 1014.83 1014.41 1014.03 1013.68 1013.33 1012.97 1012.58 1012.14 1011.64 1011.07 1010.44 1009.75 1009.03 1008.29 1007.55 1006.83 1006.15 1005.53 1004.97 1004.47 1004.04 1003.66 1003.33 1003.02 1002.74 1002.46 1002.18 1001.89
1021.16 1021.03 1020.85 1020.64 1020.36 1020.02 1019.61 1019.14 1018.61 1018.03 1017.42 1016.80 1016.18 1015.58 1015.02 1014.50 1014.04 1013.62 1013.24 1012.89 1012.55 1012.20 1011.83 1011.41 1010.94 1010.41 1009.81 1009.16 1008.47 1007.76 1007.04 1006.33 1005.65 1005.02 1004.45 1003.94 1003.49 1003.11 1002.78 1002.49 1002.22 1001.98 1001.73 1001.48
1020.90 1020.70 1020.47 1020.19 1019.86 1019.46 1019.00 1018.49 1017.92 1017.32 1016.69 1016.05 1015.42 1014.81 1014.25 1013.73 1013.26 1012.84 1012.46 1012.12 1011.79 1011.46 1011.11 1010.72 1010.28 1009.79 1009.23 1008.62 1007.96 1007.26 1006.54 1005.83 1005.14 1004.48 1003.88 1003.34 1002.87 1002.46 1002.13 1001.84 1001.60 1001.39 1001.19 1000.98
1020.51 1020.26 1019.97 1019.64 1019.25 1018.81 1018.32 1017.77 1017.19 1016.57 1015.93 1015.29 1014.66 1014.05 1013.49 1012.97 1012.50 1012.09 1011.71 1011.38 1011.07 1010.76 1010.43 1010.08 1009.67 1009.22 1008.70 1008.11 1007.47 1006.78 1006.06 1005.33 1004.61 1003.92 1003.28 1002.70 1002.19 1001.77 1001.42 1001.14 1000.92 1000.74 1000.59 1000.43
1019.96 1019.66 1019.32 1018.94 1018.52 1018.05 1017.54 1016.98 1016.38 1015.77 1015.13 1014.50 1013.88 1013.28 1012.73 1012.22 1011.76 1011.35 1010.99 1010.67 1010.37 1010.09 1009.79 1009.46 1009.09 1008.67 1008.18 1007.62 1006.99 1006.31 1005.58 1004.84 1004.09 1003.36 1002.68 1002.07 1001.53 1001.08 1000.72 1000.45 1000.25 1000.10 999.98 999.86
1019.23 1018.89 1018.51 1018.10 1017.65 1017.16 1016.64 1016.08 1015.50 1014.89 1014.28 1013.67 1013.07 1012.50 1011.96 1011.47 1011.03 1010.64 1010.29 1009.98 1009.70 1009.43 1009.16 1008.86 1008.52 1008.12 1007.65 1007.12 1006.50 1005.83 1005.10 1004.34 1003.58 1002.83 1002.12 1001.48 1000.92 1000.45 1000.09 999.81 999.62 999.48 999.38 999.29
1018.34 1017.95 1017.54 1017.11 1016.65 1016.15 1015.64 1015.09 1014.53 1013.95 1013.37 1012.79 1012.23 1011.69 1011.19 1010.72 1010.30 1009.93 1009.60 1009.31 1009.04 1008.79 1008.53 1008.25 1007.93 1007.55 1007.10 1006.58 1005.99 1005.33 1004.61 1003.86 1003.09 1002.33 1001.62 1000.97 1000.39 999.92 999.54 999.25 999.05 998.92 998.82 998.73
1017.33 1016.92 1016.49 1016.04 1015.57 1015.08 1014.57 1014.05 1013.52 1012.98 1012.44 1011.90 1011.38 1010.88 1010.41 1009.98 1009.59 1009.23 1008.92 1008.64 1008.38 1008.13 1007.88 1007.61 1007.30 1006.93 1006.51 1006.01 1005.43 1004.80 1004.10 1003.37 1002.62 1001.88 1001.17 1000.52 999.95 999.46 999.07 998.77 998.55 998.39 998.26 998.14
Thickness
5606 5607 5604 5603 5603 5596 5588 5587 5583 5590 5589 5591 5583 5577 5572 5565 5560 5556 5550 5545 5540 5533 5528 5523 5518 5513 5508 5503 5498 5492 5485 5479 5473 5468 5461 5454 5448 5443 5437 5431 5426 5421 5417 5413
5600 5600 5593 5592 5599 5595 5590 5587 5583 5584 5583 5581 5573 5566 5560 5554 5550 5544 5537 5532 5527 5521 5515 5509 5503 5499 5494 5489 5483 5475 5468 5462 5457 5450 5444 5438 5432 5427 5421 5416 5411 5405 5401 5397
5583 5585 5586 5588 5601 5596 5589 5585 5581 5576 5575 5568 5563 5558 5552 5544 5538 5530 5524 5519 5513 5507 5501 5495 5490 5484 5478 5473 5467 5459 5452 5446 5440 5433 5428 5423 5417 5411 5406 5401 5397 5392 5388 5384
5568 5577 5574 5597 5599 5594 5584 5579 5574 5570 5564 5559 5554 5547 5540 5533 5525 5517 5511 5506 5499 5493 5487 5482 5476 5470 5464 5457 5450 5443 5437 5431 5424 5418 5413 5408 5402 5396 5392 5387 5384 5381 5379 5376
5553 5558 5566 5586 5588 5581 5574 5569 5566 5558 5553 5548 5540 5531 5525 5521 5513 5505 5498 5492 5485 5479 5472 5467 5461 5455 5449 5442 5435 5428 5422 5417 5410 5403 5398 5394 5389 5384 5380 5376 5375 5372 5370 5367
5540 5549 5559 5581 5583 5576 5569 5560 5555 5548 5541 5533 5523 5513 5511 5509 5501 5493 5487 5479 5472 5466 5459 5452 5447 5440 5433 5427 5421 5414 5409 5404 5397 5389 5383 5379 5376 5373 5370 5366 5365 5364 5363 5360
5534 5535 5552 5570 5568 5565 5556 5556 5544 5536 5529 5519 5508 5502 5499 5493 5486 5480 5473 5466 5459 5452 5444 5438 5432 5425 5418 5412 5406 5402 5397 5391 5385 5378 5371 5367 5366 5363 5359 5358 5357 5356 5355 5355
5526 5526 5547 5562 5556 5550 5546 5537 5531 5523 5515 5507 5499 5492 5486 5479 5472 5466 5459 5453 5446 5439 5433 5426 5417 5409 5405 5400 5396 5391 5385 5380 5374 5369 5362 5359 5356 5355 5351 5349 5348 5349 5349 5349
5542 5552 5549 5546 5544 5538 5530 5523 5517 5508 5502 5494 5486 5478 5472 5465 5458 5451 5445 5439 5433 5425 5421 5414 5405 5395 5389 5388 5383 5378 5373 5368 5364 5360 5355 5351 5347 5346 5344 5341 5340 5341 5340 5341
5530 5535 5536 5532 5528 5523 5518 5511 5503 5496 5488 5480 5471 5464 5457 5449 5444 5438 5432 5426 5420 5413 5408 5404 5396 5387 5379 5375 5370 5365 5361 5358 5354 5351 5349 5345 5341 5337 5335 5334 5332 5332 5333 5334
5524 5525 5523 5520 5514 5509 5503 5495 5488 5481 5474 5466 5458 5450 5443 5436 5431 5425 5420 5414 5406 5399 5394 5390 5386 5379 5371 5364 5358 5353 5350 5348 5345 5341 5339 5339 5336 5332 5329 5328 5324 5325 5326 5326
5519 5516 5508 5505 5502 5495 5489 5482 5475 5467 5460 5453 5444 5437 5431 5424 5419 5413 5407 5401 5395 5388 5383 5379 5374 5369 5362 5354 5347 5342 5340 5338 5335 5333 5332 5330 5330 5331 5328 5324 5325 5323 5322 5321
5505 5504 5497 5494 5487 5482 5475 5468 5461 5453 5446 5438 5432 5424 5418 5413 5408 5401 5395 5389 5383 5378 5373 5368 5363 5358 5352 5345 5338 5333 5329 5327 5326 5325 5324 5322 5321 5321 5324 5325 5322 5320 5319 5318
5493 5489 5484 5479 5471 5466 5460 5454 5447 5440 5432 5425 5419 5413 5406 5401 5396 5390 5384 5379 5373 5368 5362 5357 5352 5348 5342 5336 5330 5326 5322 5320 5319 5318 5316 5315 5314 5313 5313 5315 5317 5318 5316 5314
5478 5475 5469 5463 5456 5451 5445 5438 5432 5425 5420 5414 5408 5401 5395 5390 5385 5381 5375 5369 5363 5357 5352 5347 5342 5339 5333 5327 5322 5319 5316 5314 5313 5313 5312 5310 5309 5308 5307 5307 5308 5310 5311 5311
5462 5458 5453 5447 5442 5436 5431 5425 5418 5413 5407 5402 5397 5392 5386 5379 5375 5370 5364 5357 5350 5346 5342 5337 5333 5329 5324 5319 5315 5313 5311 5310 5309 5309 5308 5307 5306 5304 5304 5303 5304 5304 5304 5304
5448 5443 5438 5433 5428 5423 5417 5411 5404 5400 5394 5390 5386 5381 5375 5369 5365 5361 5355 5348 5340 5334 5329 5325 5323 5320 5315 5311 5307 5307 5306 5306 5306 5304 5302 5302 5301 5300 5299 5299 5299 5299 5299 5299
5436 5431 5425 5420 5413 5408 5404 5399 5393 5388 5383 5379 5375 5369 5362 5357 5352 5349 5344 5338 5332 5328 5322 5317 5313 5311 5308 5304 5302 5301 5300 5300 5300 5299 5299 5298 5297 5297 5296 5295 5295 5295 5296 5295
5421 5417 5412 5407 5401 5395 5390 5386 5381 5376 5372 5366 5361 5356 5351 5345 5339 5335 5330 5325 5320 5318 5318 5311 5308 5305 5302 5299 5298 5297 5296 5296 5295 5295 5294 5295 5294 5293 5292 5291 5291 5291 5291 5291
5407 5403 5398 5393 5388 5382 5377 5374 5369 5365 5360 5354 5348 5344 5340 5335 5329 5323 5319 5314 5309 5306 5306 5303 5301 5299 5296 5295 5294 5293 5292 5291 5290 5291 5290 5290 5289 5289 5288 5288 5288 5288 5287 5286
5392 5388 5384 5379 5375 5371 5366 5361 5356 5353 5349 5342 5335 5331 5327 5324 5318 5312 5307 5308 5308 5301 5298 5297 5294 5292 5290 5290 5291 5289 5287 5286 5286 5286 5286 5285 5285 5285 5285 5285 5285 5284 5284 5283
5378 5374 5371 5367 5363 5359 5355 5349 5343 5339 5334 5330 5324 5319 5314 5312 5308 5304 5300 5296 5297 5295 5292 5290 5287 5286 5287 5288 5286 5284 5282 5281 5281 5282 5282 5281 5281 5281 5282 5282 5281 5281 5280 5279
5365 5361 5357 5353 5349 5345 5341 5336 5330 5325 5321 5317 5312 5308 5303 5301 5297 5293 5295 5293 5288 5287 5285 5283 5282 5283 5283 5282 5279 5278 5277 5277 5277 5278 5278 5278 5278 5278 5279 5279 5279 5278 5277 5275
5351 5348 5343 5339 5333 5328 5326 5325 5320 5315 5310 5306 5302 5297 5292 5291 5290 5286 5283 5283 5282 5280 5279 5277 5278 5278 5278 5275 5273 5273 5273 5273 5273 5274 5275 5275 5275 5275 5276 5276 5276 5275 5274 5273
5338 5333 5328 5323 5319 5317 5314 5312 5308 5304 5300 5298 5295 5290 5285 5281 5279 5280 5277 5275 5275 5274 5273 5272 5272 5272 5271 5269 5269 5269 5269 5269 5270 5271 5272 5272 5272 5273 5273 5273 5273 5273 5272 5271
5324 5320 5317 5312 5308 5304 5300 5297 5295 5293 5290 5289 5288 5285 5280 5276 5273 5271 5270 5269 5268 5268 5267 5267 5266 5266 5266 5265 5265 5265 5266 5266 5266 5266 5267 5268 5270 5271 5271 5271 5271 5270 5270 5269
5311 5307 5304 5302 5299 5293 5289 5285 5283 5282 5279 5276 5277 5276 5272 5270 5267 5266 5264 5264 5263 5262 5262 5262 5262 5262 5262 5262 5262 5262 5263 5263 5264 5264 5265 5266 5268 5269 5269 5269 5269 5268 5268 5267